DAH6578 DAAG-LFLL

Flight info

Callsign DAH6578
Flight time N/A
Altitude 36000
Route PECES DCT MAMOM DCT ELTAN DCT MHN DCT MEROS DCT LAPIT DCT CHELY DCT LUMAS DCT SOFFY DCT MRM DCT MTL
Aircraft B738/M-SDE2E3FGHIRWXY/LB1

Departure

Time N/A
Airport Houari Boumediene Airport (DAAG)

Arrival

Time 2026-05-01 14:47
Airport Lyon Saint-Exupéry Airport (LFLL)
Time Latitude Longitude Altitude Speed Heading
2026-05-01 14:30 45.17409 4.84341 10940 ft 330 kts
2026-05-01 14:31 45.21698 4.86053 10630 ft 313 kts 19°
2026-05-01 14:31 45.23751 4.87007 10424 ft 308 kts 18°
2026-05-01 14:31 45.25777 4.87905 10414 ft 300 kts 19°
2026-05-01 14:31 45.27782 4.88816 10288 ft 305 kts 19°
2026-05-01 14:32 45.29775 4.89725 10112 ft 305 kts 18°
2026-05-01 14:32 45.31136 4.90363 9770 ft 307 kts 18°
2026-05-01 14:32 45.33940 4.91239 9094 ft 305 kts
2026-05-01 14:32 45.36033 4.91136 8847 ft 299 kts 356°
2026-05-01 14:33 45.38087 4.91020 8545 ft 293 kts 358°
2026-05-01 14:33 45.40109 4.91000 8430 ft 286 kts
2026-05-01 14:33 45.42108 4.91041 8317 ft 294 kts
2026-05-01 14:33 45.44209 4.91077 8275 ft 304 kts
2026-05-01 14:34 45.46287 4.91145 8228 ft 292 kts
2026-05-01 14:34 45.48257 4.91237 8233 ft 273 kts
2026-05-01 14:34 45.50065 4.91337 8218 ft 256 kts
2026-05-01 14:34 45.51823 4.91444 8226 ft 252 kts
2026-05-01 14:35 45.53604 4.91561 8248 ft 261 kts
2026-05-01 14:35 45.55432 4.91684 8244 ft 265 kts
2026-05-01 14:35 45.57266 4.91815 8209 ft 264 kts
2026-05-01 14:35 45.59122 4.91940 7943 ft 267 kts
2026-05-01 14:36 45.60982 4.92070 7648 ft 265 kts
2026-05-01 14:36 45.62188 4.92153 7491 ft 259 kts
2026-05-01 14:36 45.64532 4.92294 7052 ft 250 kts
2026-05-01 14:36 45.66240 4.92424 6740 ft 242 kts
2026-05-01 14:37 45.67894 4.92551 6455 ft 233 kts
2026-05-01 14:37 45.69482 4.92670 6182 ft 224 kts
2026-05-01 14:37 45.71015 4.92786 5903 ft 218 kts
2026-05-01 14:37 45.72011 4.92860 5732 ft 215 kts
2026-05-01 14:38 45.74001 4.93006 5409 ft 213 kts
2026-05-01 14:38 45.75475 4.93114 5157 ft 211 kts
2026-05-01 14:38 45.76918 4.93220 4999 ft 203 kts
2026-05-01 14:38 45.78306 4.93325 4993 ft 204 kts
2026-05-01 14:39 45.79745 4.93428 4988 ft 208 kts
2026-05-01 14:39 45.81178 4.93530 4973 ft 204 kts
2026-05-01 14:39 45.82606 4.93635 4973 ft 208 kts
2026-05-01 14:39 45.84085 4.93732 4726 ft 217 kts
2026-05-01 14:40 45.85094 4.93797 4497 ft 220 kts
2026-05-01 14:40 45.87062 4.94263 4143 ft 209 kts 19°
2026-05-01 14:40 45.88425 4.94969 3873 ft 209 kts 21°
2026-05-01 14:40 45.89320 4.95449 3659 ft 206 kts 21°
2026-05-01 14:41 45.90650 4.96148 3406 ft 201 kts 21°
2026-05-01 14:41 45.92053 4.97552 3458 ft 181 kts 61°
2026-05-01 14:41 45.92395 4.98662 3541 ft 183 kts 79°
2026-05-01 14:41 45.92555 5.00527 3462 ft 191 kts 87°
2026-05-01 14:42 45.92674 5.03061 3294 ft 194 kts 92°
2026-05-01 14:42 45.92568 5.04307 3305 ft 188 kts 112°
2026-05-01 14:42 45.91759 5.05628 3141 ft 178 kts 150°
2026-05-01 14:42 45.90702 5.06535 3056 ft 176 kts 153°
2026-05-01 14:43 45.89537 5.06989 3054 ft 175 kts 169°
2026-05-01 14:43 45.88280 5.07294 2955 ft 185 kts 173°
2026-05-01 14:43 45.86656 5.07570 2990 ft 171 kts 175°
2026-05-01 14:43 45.85512 5.07729 2970 ft 157 kts 176°
2026-05-01 14:44 45.84791 5.07811 2988 ft 154 kts 177°
2026-05-01 14:44 45.82697 5.08077 2609 ft 146 kts 176°
2026-05-01 14:44 45.81631 5.08233 2375 ft 161 kts 176°
2026-05-01 14:45 45.80567 5.08334 2181 ft 146 kts 174°
2026-05-01 14:45 45.78577 5.08562 1825 ft 144 kts 175°
2026-05-01 14:45 45.77576 5.08674 1627 ft 145 kts 178°
2026-05-01 14:46 45.76575 5.08796 1420 ft 142 kts 176°
2026-05-01 14:46 45.74685 5.09042 1059 ft 139 kts 176°
2026-05-01 14:46 45.73723 5.09165 875 ft 139 kts 177°
2026-05-01 14:47 45.72792 5.09269 800 ft 124 kts 175°
2026-05-01 14:47 45.72145 5.09349 810 ft 63 kts 175°
2026-05-01 14:47 45.71877 5.09368 811 ft 32 kts 186°
2026-05-01 14:48 45.71675 5.09273 814 ft 1 kts 208°
2026-05-01 14:48 45.71634 5.09190 814 ft 15 kts 262°
2026-05-01 14:48 45.71617 5.08874 813 ft 16 kts 265°
2026-05-01 14:49 45.71613 5.08811 813 ft 0 kts 265°
2026-05-01 14:52 45.71611 5.08769 813 ft 7 kts 265°
2026-05-01 14:52 45.71606 5.08695 813 ft 7 kts 265°
2026-05-01 14:52 45.71595 5.08555 811 ft 7 kts 245°
2026-05-01 14:53 45.71558 5.08515 813 ft 7 kts 192°
2026-05-01 14:53 45.71511 5.08513 815 ft 7 kts 178°
2026-05-01 14:53 45.71460 5.08516 816 ft 12 kts 183°
2026-05-01 14:53 45.71412 5.08418 817 ft 14 kts 269°
2026-05-01 14:54 45.71410 5.08364 817 ft 17 kts 267°
2026-05-01 14:54 45.71446 5.08083 815 ft 17 kts 286°
2026-05-01 14:54 45.71489 5.07932 815 ft 16 kts 318°
2026-05-01 14:54 45.71561 5.07876 812 ft 0 kts 334°